Location: Gowrie
(35.4119°S, 149.1090°E)
Time: 21:21:18
(UTC+11:00)

Tiangong 2 - Pass Details

Date: 15 October 2017
Orbit: 386 x 391 km, 42.8° (Epoch: 18 November)

Event Time Altitude Azimuth Distance (km) Brightness Sun altitude
Rises 19:50:11 0° 242° (WSW) 2,305 7.0 -7.1°
Reaches altitude 10° 19:52:18 10° 239° (WSW) 1,443 5.5 -7.6°
Maximum altitude 19:55:32 67° 156° (SSE) 431 1.3 -8.2°
Enters shadow 19:58:25 12° 72° (ENE) 1,296 3.0 -8.7°
